Location: Asarope
(8.2500°N, 4.4833°E)
Time: 01:21:06
(UTC+00:00)

Hubble Space Telescope - Pass Details

Date: 04 August 2021
Orbit: 535 x 539 km, 28.5° (Epoch: 24 September)

Event Time Altitude Azimuth Distance (km) Brightness Sun altitude
Rises 18:42:28 0° 322° (NW) 2,666 5.4 -10.4°
Reaches altitude 10° 18:45:35 10° 346° (NNW) 1,775 3.9 -11.1°
Maximum altitude 18:47:56 15° 22° (NNE) 1,494 3.0 -11.7°
Drops below altitude 10° 18:50:18 10° 57° (ENE) 1,774 3.1 -12.2°
Enters shadow 18:50:48 - 62° (ENE) 1,890 3.2 -12.3°
